[[{"header":{"parameterUnit":"m.s-1","parameterCategory":1,"la1":30.2991,"la2":30.254,"lo1":-89.0895,"lo2":-89.0444,"dy":0.0017,"dx":0.0017,"nx":28,"ny":28,"refTime":"2023-09-15T03:00:00:Z","depth":0,"parameterNumber":2,"parameterNumberName":"U-component_of_WINDS"},"data":[0,0,0,0,0,0,0,0,0,0,0,0,0,0,0,0,0,0,0,0,0,0,0,0,0,0,0,0,0,0,0,0,0,0,0,0,0,0,0,0,0,0,0,0,0,0,0,0,0,0,0,0,0,0,0,0,0,0,0.9954,0.9955,0,1.0073,1.0074,1.0076,1.011,1.011,1.0109,1.0108,1.0235,1.0238,1.0242,0,0,0,0,0,0,0,0,0,0,0,0,0,0.9761,0.9764,0.9954,0.9955,0.9957,1.0073,1.0074,1.0076,1.011,1.011,1.0109,1.0108,1.0233,1.0238,1.0243,0,0,0,0,0,0,0,0,0,0,0,0,0,0.9859,0.9765,0.9953,0.9988,0.9992,1.0072,1.0074,1.0076,1.0111,1.011,1.0109,1.0108,1.0232,1.0237,1.0243,1.0299,0,0,1.0261,1.0264,0,0,0,0,0,0,0,0,0.9853,0.9866,0.9981,0.9986,0.999,1.0076,1.0052,1.0151,1.0111,1.0066,1.0108,1.0107,1.0183,1.0193,1.0217,1.0305,1.031,1.0262,1.0266,1.0268,1.027,0,0,0,0,0,0,0,0.9846,0.9861,1.0001,0.9983,0.9989,0.9999,1.0012,1.0071,1.0128,1.007,1.0072,1.0086,1.0185,1.0211,1.022,1.0312,1.0262,1.0267,1.0271,1.0273,1.0453,1.0454,0,0,0,0,0,0,0.9833,0.9855,0.9997,1.0004,0.9918,1.0003,1.0017,1.0049,1.0128,1.0139,1.0086,1.0087,1.0202,1.0213,1.0225,1.0295,1.0268,1.0274,1.0277,1.0451,1.0453,1.0454,0,0,0,0,0,0,0.9829,0.9845,0.9992,0.993,0.995,1.0007,1.0043,1.0052,1.0078,1.014,1.0151,1.0103,1.0201,1.0217,1.028,1.03,1.0276,1.0282,1.045,1.0452,1.0453,1.0436,0,0,0,0,0,0,0.9823,0.9843,0.9864,0.9931,0.9953,1.0044,1.0044,1.0055,1.0088,1.009,1.0158,1.0169,1.0202,1.0271,1.0286,1.0308,1.0286,1.0448,1.0451,1.0453,1.0435,1.0437,1.0439,0,0,0,0,0,0.9816,0.9855,0.9865,0.9882,0.998,1.0045,1.0058,1.0094,1.0089,1.0111,1.0151,1.0167,1.0296,1.0277,1.0295,1.0318,1.0447,1.045,1.0453,1.0435,1.0437,1.0439,0,0,0,0,0,0,0.9791,0.9865,0.9876,0.9938,0.9985,1.0051,1.0079,1.0096,1.0146,1.0145,1.0189,1.0205,1.0265,1.0299,1.0277,1.0377,1.0372,1.0378,1.0352,1.0355,1.0357,1.0348,1.0291,0,0,0,0,0,0.9792,0.9838,0.9901,0.9949,0.9972,1.0022,1.0051,1.0075,1.0126,1.0146,1.0191,1.0241,1.0293,1.0326,1.0377,1.0441,1.0457,1.0466,1.0468,1.0469,1.0474,1.051,1.0515,1.0463,1.0463,1.0463,0,0,0.9796,0.9842,0.9868,0.9945,0.9984,1.0032,1.0038,1.0088,1.0124,1.0155,1.0216,1.0251,1.031,1.0374,1.0404,1.0403,1.0492,1.0472,1.0473,1.0477,1.0513,1.0518,1.0522,1.0465,1.0465,1.0464,0,0,0.9827,0.9866,0.9911,0.995,1.0009,1.0042,1.0052,1.0116,1.014,1.0203,1.0227,1.0271,1.036,1.0401,1.0433,1.048,1.0496,1.0496,1.0505,1.054,1.0544,1.0548,1.0565,1.057,1.0501,1.0501,1.0501,0,0.9825,0.9895,0.9932,0.9981,1.0014,1.0043,1.009,1.0126,1.0199,1.0222,1.022,1.0332,1.0374,1.0447,1.0459,1.0484,1.0498,1.0488,1.054,1.0545,1.0549,1.0565,1.0571,1.05,1.05,1.05,1.05,0,0.989,0.9939,0.9968,1.0036,1.0074,1.0121,1.0166,1.0199,1.022,1.0254,1.0318,1.0369,1.0431,1.0451,1.0472,1.0528,1.0525,1.0531,1.0527,1.0552,1.0569,1.0575,1.0499,1.05,1.05,1.05,0,0,0.9907,0.9995,1.0006,1.0037,1.0104,1.0144,1.0193,1.0252,1.028,1.033,1.0373,1.0447,1.0453,1.049,1.0517,1.0547,1.0581,1.055,1.0552,1.0553,1.0646,1.064,1.0647,1.0593,1.0594,1.0595,1.0641,0,0.9946,1.0033,1.0068,1.014,1.0186,1.0215,1.0258,1.0304,1.0337,1.0382,1.042,1.0471,1.0476,1.0498,1.053,1.057,1.06,1.0568,1.0633,1.0635,1.0617,1.0655,1.0649,1.069,1.0647,1.0648,1.0649,0,1.0003,1.0052,1.0127,1.0189,1.021,1.0248,1.0305,1.0348,1.0402,1.0424,1.0465,1.049,1.0544,1.0537,1.0612,1.0589,1.0619,1.0643,1.0645,1.0652,1.0643,1.0663,1.0704,1.0709,1.066,1.0659,1.0658,0,1.0007,1.0092,1.0148,1.0175,1.0249,1.0275,1.0307,1.036,1.0394,1.0445,1.0467,1.0524,1.0556,1.06,1.064,1.0631,1.0712,1.0708,1.0732,1.0731,1.0747,1.0745,1.0792,1.0767,1.0767,1.0767,1.0766,0,1.0047,1.0091,1.0151,1.0186,1.0237,1.0278,1.0329,1.0363,1.0411,1.0453,1.0483,1.0522,1.0573,1.062,1.0652,1.0709,1.0723,1.0743,1.0751,1.074,1.0737,1.0759,1.0757,1.0768,1.0768,1.0768,1.0767,0,1.006,1.0102,1.0165,1.0229,1.0247,1.0282,1.0338,1.0374,1.0408,1.0462,1.0477,1.0531,1.0588,1.0632,1.0706,1.0728,1.0788,1.0797,1.0769,1.0773,1.0794,1.0791,1.0857,1.0867,1.0835,1.0835,1.0835,0,1.0081,1.0117,1.0185,1.0215,1.0247,1.0295,1.0329,1.0372,1.0406,1.0471,1.0499,1.0557,1.0605,1.0694,1.0741,1.0798,1.0809,1.0828,1.0817,1.0805,1.0808,1.0805,1.0809,1.0828,1.0829,1.0829,1.0829,0,1.0116,1.0135,1.0182,1.0238,1.0277,1.0323,1.037,1.0393,1.0444,1.0482,1.0539,1.0577,1.0652,1.0709,1.0771,1.0806,1.0826,1.0832,1.084,1.0829,1.0811,1.0821,1.0772,1.083,1.083,1.083,1.083,1.083,1.0134,1.0166,1.0219,1.0272,1.0311,1.0354,1.039,1.0429,1.0477,1.0541,1.0563,1.0622,1.0677,1.0761,1.0797,1.0844,1.0846,1.0858,1.0861,1.0863,1.0862,1.0804,1.0856,1.0856,1.0856,1.0856,1.0856,0,1.0169,1.0205,1.0253,1.0316,1.0358,1.0372,1.0425,1.0459,1.051,1.0558,1.0605,1.0672,1.0728,1.0779,1.0838,1.0866,1.0877,1.088,1.0878,1.0886,1.0857,1.0844,1.0871,1.0871,1.0871,1.0871,1.0871,1.0871,1.0192,1.0248,1.0274,1.035,1.0386,1.0443,1.0471,1.0512,1.055,1.0622,1.0669,1.0702,1.0752,1.0815,1.0867,1.0881,1.0901,1.0902,1.0918,1.089,1.0888,1.0886,1.0874,1.0906,1.0906,1.0943,1.0943,1.0943]},{"header":{"parameterUnit":"m.s-1","parameterCategory":1,"la1":30.2991,"la2":30.254,"lo1":-89.0895,"lo2":-89.0444,"dy":0.0017,"dx":0.0017,"nx":28,"ny":28,"refTime":"2023-09-15T03:00:00:Z","depth":0,"parameterNumber":3,"parameterNumberName":"V-component_of_WINDS"},"data":[0,0,0,0,0,0,0,0,0,0,0,0,0,0,0,0,0,0,0,0,0,0,0,0,0,0,0,0,0,0,0,0,0,0,0,0,0,0,0,0,0,0,0,0,0,0,0,0,0,0,0,0,0,0,0,0,0,0,2.3587,2.3586,0,2.3538,2.3538,2.3537,2.35,2.35,2.3499,2.3499,2.3448,2.3447,2.3446,0,0,0,0,0,0,0,0,0,0,0,0,0,2.3644,2.3643,2.3587,2.3586,2.3585,2.3538,2.3538,2.3537,2.35,2.35,2.3499,2.3499,2.3449,2.3447,2.3446,0,0,0,0,0,0,0,0,0,0,0,0,0,2.3609,2.3642,2.3587,2.3561,2.3559,2.3538,2.3538,2.3537,2.35,2.35,2.3499,2.3499,2.3449,2.3448,2.3446,2.3447,0,0,2.3441,2.3441,0,0,0,0,0,0,0,0,2.3611,2.3607,2.3566,2.3563,2.356,2.3525,2.3539,2.3507,2.35,2.3522,2.3499,2.3498,2.3474,2.347,2.3462,2.3444,2.3442,2.3441,2.344,2.344,2.3439,0,0,0,0,0,0,0,2.3614,2.3609,2.3567,2.3565,2.3562,2.3551,2.3546,2.3533,2.3502,2.352,2.3518,2.3512,2.3472,2.3464,2.3461,2.3442,2.3441,2.344,2.3439,2.3438,2.3418,2.3418,0,0,0,0,0,0,2.362,2.3611,2.3569,2.3566,2.3585,2.3551,2.3545,2.3536,2.3502,2.3496,2.3513,2.3511,2.3467,2.3463,2.3459,2.3455,2.344,2.3438,2.3437,2.3417,2.3418,2.3418,0,0,0,0,0,0,2.3622,2.3617,2.3571,2.3588,2.3581,2.355,2.3541,2.3536,2.3527,2.3496,2.349,2.351,2.3466,2.3461,2.3449,2.3453,2.3437,2.3436,2.3417,2.3417,2.3418,2.3449,0,0,0,0,0,0,2.3624,2.3618,2.3619,2.3588,2.358,2.3563,2.3542,2.3535,2.3525,2.3522,2.3492,2.3487,2.3466,2.3452,2.3448,2.3451,2.3435,2.3416,2.3417,2.3418,2.3448,2.3451,2.3453,0,0,0,0,0,2.3626,2.363,2.3619,2.3614,2.3581,2.3564,2.3559,2.3535,2.3526,2.3525,2.3505,2.3488,2.3453,2.3451,2.3446,2.3449,2.3416,2.3417,2.3418,2.3446,2.345,2.3453,0,0,0,0,0,0,2.3662,2.3626,2.3613,2.3608,2.3589,2.3557,2.3557,2.354,2.3524,2.3521,2.3492,2.3485,2.3476,2.3461,2.3459,2.3445,2.3432,2.3432,2.3456,2.3459,2.3462,2.3465,2.3434,0,0,0,0,0,2.3669,2.3659,2.3627,2.3625,2.3616,2.3588,2.358,2.3563,2.3542,2.3534,2.3512,2.3492,2.3476,2.3467,2.3451,2.3445,2.3437,2.3444,2.3447,2.3449,2.3449,2.3442,2.3444,2.3421,2.3421,2.3421,0,0,2.3684,2.3663,2.3658,2.3632,2.3615,2.3604,2.3582,2.3571,2.3562,2.3532,2.3519,2.3502,2.3478,2.3468,2.3463,2.3455,2.3454,2.3451,2.3453,2.3451,2.3443,2.3445,2.3447,2.3422,2.3421,2.3421,0,0,2.3705,2.3689,2.3684,2.3668,2.3643,2.3624,2.3622,2.3593,2.358,2.3567,2.3543,2.3531,2.3506,2.3488,2.3476,2.3487,2.347,2.3483,2.3498,2.3491,2.3493,2.3494,2.3496,2.3497,2.3483,2.3483,2.3483,0,2.3727,2.3709,2.3684,2.3674,2.3662,2.3634,2.3628,2.3613,2.3584,2.3576,2.3568,2.3533,2.3515,2.3499,2.3501,2.3493,2.3489,2.3486,2.3495,2.3496,2.3497,2.3498,2.3499,2.3485,2.3485,2.3485,2.3484,0,2.3735,2.3723,2.3722,2.3695,2.3683,2.3675,2.3647,2.3637,2.3621,2.3602,2.3586,2.3563,2.3541,2.3536,2.352,2.3517,2.3513,2.35,2.3486,2.3501,2.3502,2.3502,2.3487,2.3487,2.3486,2.3486,0,0,2.3778,2.3735,2.3735,2.3721,2.3691,2.368,2.367,2.3648,2.3639,2.362,2.3609,2.3586,2.3574,2.356,2.3541,2.3536,2.3543,2.3523,2.3522,2.3526,2.3535,2.3544,2.3545,2.3531,2.3531,2.3531,2.3537,0,2.3793,2.3774,2.3749,2.3738,2.3725,2.3697,2.3687,2.3667,2.3648,2.3634,2.3613,2.3596,2.3582,2.3573,2.3566,2.3544,2.3544,2.3543,2.3519,2.3519,2.3525,2.3546,2.3556,2.3562,2.3537,2.3537,2.3537,0,2.3808,2.3789,2.3776,2.3744,2.3738,2.373,2.3706,2.3693,2.3668,2.3655,2.3638,2.3618,2.3603,2.3591,2.357,2.3569,2.3558,2.3545,2.3545,2.3541,2.3528,2.3541,2.3564,2.3564,2.3538,2.3538,2.3538,0,2.3837,2.3809,2.3797,2.3786,2.3749,2.3744,2.3728,2.3703,2.369,2.3669,2.366,2.3638,2.3626,2.3608,2.3581,2.3575,2.3561,2.3548,2.3548,2.3549,2.3546,2.3547,2.3566,2.3541,2.3541,2.3541,2.3541,0,2.3855,2.3848,2.3809,2.3802,2.3792,2.3763,2.3754,2.3735,2.3713,2.3699,2.3674,2.3662,2.3629,2.3612,2.3591,2.3575,2.357,2.3557,2.3552,2.3559,2.356,2.3551,2.3549,2.3541,2.3541,2.3541,2.3541,0,2.3887,2.3861,2.3845,2.3812,2.3803,2.3797,2.3767,2.3757,2.3737,2.372,2.3715,2.3682,2.3661,2.3633,2.3604,2.3589,2.3575,2.3567,2.3584,2.358,2.3582,2.3581,2.3595,2.3594,2.3571,2.3571,2.3571,0,2.3899,2.3893,2.3858,2.3847,2.3832,2.3816,2.3803,2.3774,2.3761,2.3731,2.3725,2.3702,2.3682,2.3649,2.3622,2.3598,2.3589,2.3595,2.3585,2.3592,2.3586,2.3587,2.3585,2.3597,2.3597,2.3598,2.3598,0,2.3923,2.391,2.3893,2.387,2.3855,2.3836,2.3815,2.3808,2.3774,2.3761,2.3739,2.3724,2.3692,2.3669,2.3642,2.3624,2.3604,2.3601,2.36,2.3607,2.3616,2.3609,2.3589,2.3601,2.3601,2.3601,2.36,2.36,2.3944,2.3936,2.391,2.389,2.3872,2.3853,2.3842,2.3819,2.3801,2.3774,2.3758,2.3736,2.3709,2.367,2.3652,2.3634,2.3626,2.3625,2.3624,2.3624,2.3626,2.362,2.3629,2.3629,2.3628,2.3628,2.3628,0,2.3965,2.3946,2.3929,2.3901,2.3885,2.3869,2.3845,2.3832,2.3814,2.379,2.3771,2.3745,2.3722,2.3692,2.3666,2.3657,2.3647,2.3651,2.3651,2.3647,2.3634,2.3638,2.3659,2.3659,2.3659,2.3659,2.3659,2.3659,2.3974,2.3959,2.3943,2.3918,2.3899,2.3878,2.3865,2.3847,2.3827,2.38,2.378,2.3762,2.3735,2.3706,2.3684,2.3675,2.3666,2.3672,2.3661,2.3651,2.3648,2.3645,2.3648,2.3671,2.3671,2.3675,2.3675,2.3675]}]]